Regional Weather Roundup
Issued by NWS

Home | Current Version | Previous Version | Text Only | Print | Product List | Glossary On
Versions: 1 2 3 4 5 6 7 8 9 10 11 12 13 14 15 16 17 18 19 20 21 22 23 24 25 26 27 28 29 30 31 32 33 34 35 36 37 38 39 40 41 42 43 44 45 46 47 48 49 50
309
ASUS43 KFSD 250710
RWRSD

WEATHER ROUNDUP FOR SOUTH DAKOTA
NATIONAL WEATHER SERVICE SIOUX FALLS SD
200 AM CDT SAT MAR 25 2017

NOTE: "FAIR" INDICATES FEW OR NO CLOUDS BELOW 12,000 FEET WITH NO
SIGNIFICANT WEATHER AND/OR OBSTRUCTIONS TO VISIBILITY.


SDZ001>005-009-010-012>017-250800-
NORTHWEST AND NORTH CENTRAL SOUTH DAKOTA

CITY           SKY/WX    TMP DP  RH WIND       PRES   REMARKS
BUFFALO          N/A     42  32  67 SE24G32   29.87F
FAITH            N/A     35  32  88 SE17      30.04F WCI  25
MOBRIDGE       CLEAR     31  27  85 E13       30.10F WCI  21
$$

SDZ012>016-024>037-041>051-057-063-072>074-250800-
SOUTHWEST AND SOUTH CENTRAL SOUTH DAKOTA

CITY           SKY/WX    TMP DP  RH WIND       PRES   REMARKS
RAPID CTY ARPT CLEAR     37  28  70 SE8       30.03F
PIERRE         CLOUDY    29  26  89 E6        30.12F WCI  23
CUSTER         CLOUDY    35  24  64 SW5       30.05F
ELLSWORTH AFB  CLEAR     43  30  59 S10       30.01F
PHILIP         CLEAR     32  28  85 E8        30.09F WCI  25
PINE RIDGE     CLEAR     44  31  60 VRB5      30.06F
SPEARFISH      FAIR      48  27  43 VRB7      29.93F
WINNER         FOG       28  26  92 CALM      30.12F VSB 1
$$

SDZ004>011-016>023-039-040-250800-
NORTHEAST SOUTH DAKOTA

CITY           SKY/WX    TMP DP  RH WIND       PRES   REMARKS
ABERDEEN       CLOUDY    26  23  88 N6        30.20S WCI  19
WATERTOWN      CLOUDY    32  31  96 CALM      30.14F
BROOKINGS      CLOUDY    34  31  88 E13       30.12F WCI  25
SISSETON         N/A     28  27  96 N5        30.19S WCI  23
$$

SDZ017-020-022-023-036>040-048>070-250800-
SOUTHEAST SOUTH DAKOTA

CITY           SKY/WX    TMP DP  RH WIND       PRES   REMARKS
SIOUX FALLS    CLOUDY    36  34  92 NE13      30.11S FOG
HURON          CLOUDY    38  34  85 NE3       30.15F
CHAMBERLAIN    CLOUDY    35  34  98 NE3       30.14F
MITCHELL       CLOUDY    39  34  82 NE9       30.15F
YANKTON        CLOUDY    36  34  93 NE12      30.10S
$$

ABBREVIATIONS USED IN REMARKS
   TC - TEMPERATURE IN CELSIUS
  WCI - WIND CHILL INDEX
   HX - HEAT INDEX
  VSB - VISIBILITY





USA.gov is the U.S. government's official web portal to all federal, state and local government web resources and services.